DAL829 KSLC-KLAX

Flight info

Callsign DAL829
Flight time 1h 34m
Altitude 36000
Route ZIONZ1 EHK LAKRR Q73 HAKMN ANJLL4
Aircraft B739/M-SDE2E3FGHIRWXY/LB1

Departure

Time 2026-04-22 03:21
Airport Salt Lake City International Airport (KSLC)

Arrival

Time 2026-04-22 04:55
Airport Los Angeles International Airport (KLAX)
Time Latitude Longitude Altitude Speed Heading
2026-04-22 02:29 40.78467 -111.99149 4234 ft 0 kts 10°
2026-04-22 03:09 40.78464 -111.99150 4234 ft 1 kts 10°
2026-04-22 03:09 40.78451 -111.99153 4234 ft 2 kts
2026-04-22 03:09 40.78435 -111.99152 4233 ft 3 kts 327°
2026-04-22 03:10 40.78423 -111.99135 4233 ft 3 kts 291°
2026-04-22 03:10 40.78419 -111.99110 4232 ft 3 kts 271°
2026-04-22 03:10 40.78419 -111.99095 4234 ft 1 kts 265°
2026-04-22 03:10 40.78419 -111.99092 4234 ft 0 kts 265°
2026-04-22 03:15 40.78416 -111.99141 4234 ft 11 kts 262°
2026-04-22 03:15 40.78412 -111.99238 4234 ft 10 kts 265°
2026-04-22 03:15 40.78417 -111.99352 4234 ft 16 kts 282°
2026-04-22 03:15 40.78425 -111.99416 4234 ft 5 kts 283°
2026-04-22 03:16 40.78462 -111.99440 4234 ft 8 kts 358°
2026-04-22 03:16 40.78544 -111.99456 4234 ft 15 kts 351°
2026-04-22 03:16 40.78675 -111.99468 4234 ft 22 kts 355°
2026-04-22 03:16 40.78853 -111.99488 4234 ft 29 kts 356°
2026-04-22 03:17 40.79042 -111.99510 4234 ft 28 kts 356°
2026-04-22 03:17 40.79219 -111.99530 4234 ft 27 kts 348°
2026-04-22 03:17 40.79381 -111.99548 4233 ft 30 kts 349°
2026-04-22 03:17 40.79530 -111.99566 4233 ft 24 kts 357°
2026-04-22 03:18 40.79709 -111.99585 4232 ft 27 kts 354°
2026-04-22 03:18 40.79874 -111.99607 4234 ft 22 kts 355°
2026-04-22 03:18 40.80025 -111.99627 4234 ft 21 kts 355°
2026-04-22 03:18 40.80171 -111.99638 4234 ft 21 kts 348°
2026-04-22 03:19 40.80312 -111.99660 4234 ft 20 kts 356°
2026-04-22 03:19 40.80448 -111.99673 4234 ft 20 kts 354°
2026-04-22 03:19 40.80581 -111.99689 4234 ft 19 kts 355°
2026-04-22 03:19 40.80695 -111.99705 4233 ft 13 kts 355°
2026-04-22 03:20 40.80766 -111.99754 4233 ft 12 kts 286°
2026-04-22 03:20 40.80762 -111.99865 4233 ft 12 kts 253°
2026-04-22 03:20 40.80693 -111.99918 4234 ft 21 kts 179°
2026-04-22 03:20 40.80321 -111.99878 4235 ft 85 kts 174°
2026-04-22 03:21 40.79549 -111.99764 4233 ft 134 kts 173°
2026-04-22 03:21 40.78497 -111.99584 4326 ft 167 kts 173°
2026-04-22 03:21 40.77277 -111.99512 4680 ft 186 kts 179°
2026-04-22 03:21 40.75868 -111.99588 4873 ft 218 kts 181°
2026-04-22 03:22 40.74264 -111.99527 5215 ft 240 kts 174°
2026-04-22 03:22 40.72539 -111.99231 5597 ft 259 kts 172°
2026-04-22 03:22 40.70745 -111.98878 5907 ft 258 kts 172°
2026-04-22 03:22 40.69025 -111.98556 6204 ft 250 kts 174°
2026-04-22 03:23 40.67311 -111.98257 6487 ft 245 kts 175°
2026-04-22 03:23 40.65613 -111.97980 6772 ft 247 kts 176°
2026-04-22 03:23 40.63918 -111.97719 7182 ft 245 kts 176°
2026-04-22 03:23 40.62209 -111.97467 7601 ft 248 kts 177°
2026-04-22 03:24 40.60497 -111.97219 8034 ft 248 kts 176°
2026-04-22 03:24 40.58783 -111.96975 8504 ft 248 kts 177°
2026-04-22 03:24 40.57074 -111.96733 8996 ft 247 kts 177°
2026-04-22 03:24 40.55365 -111.96492 9502 ft 246 kts 177°
2026-04-22 03:25 40.53646 -111.96252 9990 ft 252 kts 177°
2026-04-22 03:25 40.51883 -111.96007 10461 ft 258 kts 176°
2026-04-22 03:25 40.50079 -111.95756 10947 ft 263 kts 176°
2026-04-22 03:25 40.48319 -111.95511 11400 ft 261 kts 176°
2026-04-22 03:26 40.46568 -111.95265 11877 ft 253 kts 176°
2026-04-22 03:26 40.44815 -111.95063 12376 ft 253 kts 177°
2026-04-22 03:26 40.43050 -111.94940 12910 ft 255 kts 178°
2026-04-22 03:26 40.41269 -111.94833 13444 ft 258 kts 178°
2026-04-22 03:27 40.39467 -111.94724 13929 ft 261 kts 177°
2026-04-22 03:27 40.37930 -111.94625 14332 ft 263 kts 177°
2026-04-22 03:27 40.36511 -111.94531 14700 ft 264 kts 177°
2026-04-22 03:27 40.35991 -111.94497 14842 ft 264 kts 177°
2026-04-22 03:28 40.35251 -111.94447 15049 ft 265 kts 177°
2026-04-22 03:28 40.33357 -111.94317 15538 ft 266 kts 177°
2026-04-22 03:28 40.31510 -111.94191 16036 ft 266 kts 177°
2026-04-22 03:28 40.29657 -111.94063 16547 ft 267 kts 177°
2026-04-22 03:29 40.27805 -111.93935 16993 ft 265 kts 178°
2026-04-22 03:29 40.25947 -111.93871 17307 ft 275 kts 182°
2026-04-22 03:29 40.23972 -111.94127 17373 ft 291 kts 187°
2026-04-22 03:29 40.21916 -111.94541 17475 ft 308 kts 188°
2026-04-22 03:30 40.19750 -111.94958 17688 ft 318 kts 187°
2026-04-22 03:30 40.17578 -111.95332 18211 ft 320 kts 187°
2026-04-22 03:30 40.15308 -111.95697 18242 ft 336 kts 187°
2026-04-22 03:30 40.12956 -111.96064 18455 ft 345 kts 187°
2026-04-22 03:31 40.10553 -111.96423 18562 ft 347 kts 187°
2026-04-22 03:31 40.08169 -111.96770 18848 ft 339 kts 187°
2026-04-22 03:31 40.05855 -111.97104 19385 ft 334 kts 187°
2026-04-22 03:31 40.03541 -111.97440 19833 ft 335 kts 187°
2026-04-22 03:32 40.01223 -111.97776 20332 ft 335 kts 187°
2026-04-22 03:32 39.98906 -111.98114 20811 ft 335 kts 188°
2026-04-22 03:32 39.96593 -111.98452 21305 ft 334 kts 188°
2026-04-22 03:32 39.94284 -111.98789 21818 ft 334 kts 188°
2026-04-22 03:33 39.91982 -111.99125 22336 ft 333 kts 188°
2026-04-22 03:33 39.89708 -111.99457 22800 ft 334 kts 188°
2026-04-22 03:33 39.87351 -111.99803 22654 ft 351 kts 188°
2026-04-22 03:33 39.84892 -112.00163 22801 ft 358 kts 188°
2026-04-22 03:34 39.82398 -112.00527 22834 ft 364 kts 188°
2026-04-22 03:34 39.79900 -112.00889 23156 ft 354 kts 188°
2026-04-22 03:34 39.77476 -112.01239 23760 ft 351 kts 188°
2026-04-22 03:34 39.75047 -112.01592 24149 ft 349 kts 188°
2026-04-22 03:35 39.72643 -112.01941 24647 ft 347 kts 188°
2026-04-22 03:35 39.70248 -112.02289 25092 ft 345 kts 189°
2026-04-22 03:35 39.67874 -112.02633 25587 ft 342 kts 188°
2026-04-22 03:35 39.65514 -112.02975 26057 ft 339 kts 189°
2026-04-22 03:36 39.63207 -112.03310 26548 ft 336 kts 189°
2026-04-22 03:36 39.60900 -112.03643 27035 ft 332 kts 189°
2026-04-22 03:36 39.58614 -112.03974 27549 ft 328 kts 189°
2026-04-22 03:36 39.56359 -112.04300 28027 ft 325 kts 189°
2026-04-22 03:37 39.54122 -112.04624 28514 ft 321 kts 189°
2026-04-22 03:37 39.51922 -112.04941 29045 ft 316 kts 189°
2026-04-22 03:37 39.49708 -112.05262 29155 ft 323 kts 189°
2026-04-22 03:37 39.47476 -112.05585 29519 ft 320 kts 189°
2026-04-22 03:38 39.45285 -112.05897 30057 ft 314 kts 189°
2026-04-22 03:38 39.43122 -112.06204 30423 ft 310 kts 189°
2026-04-22 03:38 39.41006 -112.06503 30883 ft 302 kts 189°
2026-04-22 03:38 39.38922 -112.06798 31150 ft 303 kts 189°
2026-04-22 03:39 39.36784 -112.07105 30982 ft 315 kts 189°
2026-04-22 03:39 39.34570 -112.07423 30964 ft 323 kts 189°
2026-04-22 03:39 39.32329 -112.07741 31074 ft 327 kts 189°
2026-04-22 03:39 39.30033 -112.08067 31037 ft 336 kts 189°
2026-04-22 03:40 39.25336 -112.08733 31046 ft 350 kts 189°
2026-04-22 03:40 39.22899 -112.09077 31187 ft 353 kts 189°
2026-04-22 03:40 39.20462 -112.09419 31473 ft 352 kts 189°
2026-04-22 03:41 39.18037 -112.09760 31908 ft 345 kts 189°
2026-04-22 03:41 39.15687 -112.10089 32455 ft 338 kts 189°
2026-04-22 03:41 39.13350 -112.10615 32321 ft 344 kts 202°
2026-04-22 03:41 39.11252 -112.12126 32285 ft 348 kts 215°
2026-04-22 03:42 39.09316 -112.13953 32664 ft 345 kts 214°
2026-04-22 03:42 39.07288 -112.15639 32790 ft 347 kts 209°
2026-04-22 03:42 39.05168 -112.17088 33124 ft 345 kts 207°
2026-04-22 03:42 39.03007 -112.18477 33305 ft 347 kts 207°
2026-04-22 03:43 39.00858 -112.19874 33563 ft 346 kts 208°
2026-04-22 03:43 38.98728 -112.21302 33820 ft 344 kts 208°
2026-04-22 03:43 38.94463 -112.24279 33873 ft 354 kts 210°
2026-04-22 03:44 38.90140 -112.27380 33912 ft 362 kts 210°
2026-04-22 03:44 38.85678 -112.30608 33889 ft 372 kts 210°
2026-04-22 03:45 38.81109 -112.33916 33881 ft 382 kts 210°
2026-04-22 03:45 38.76424 -112.37305 33864 ft 391 kts 210°
2026-04-22 03:46 38.71627 -112.40770 33840 ft 400 kts 210°
2026-04-22 03:46 38.66730 -112.44300 33824 ft 408 kts 210°
2026-04-22 03:47 38.61764 -112.47876 33810 ft 412 kts 210°
2026-04-22 03:47 38.56738 -112.51488 33804 ft 415 kts 210°
2026-04-22 03:48 38.51715 -112.55092 33821 ft 413 kts 210°
2026-04-22 03:48 38.46708 -112.58679 33836 ft 412 kts 210°
2026-04-22 03:49 38.41732 -112.62237 33839 ft 411 kts 210°
2026-04-22 03:49 38.36734 -112.65807 33831 ft 411 kts 210°
2026-04-22 03:50 38.31747 -112.69363 33831 ft 411 kts 210°
2026-04-22 03:50 38.26763 -112.72911 33839 ft 410 kts 210°
2026-04-22 03:51 38.21854 -112.76400 33845 ft 409 kts 210°
2026-04-22 03:51 38.16875 -112.79934 33841 ft 409 kts 210°
2026-04-22 03:52 38.11899 -112.83459 33837 ft 409 kts 210°
2026-04-22 03:52 38.06924 -112.86979 33816 ft 409 kts 210°
2026-04-22 03:53 38.01940 -112.90499 33801 ft 410 kts 210°
2026-04-22 03:53 37.96961 -112.94011 33831 ft 410 kts 210°
2026-04-22 03:54 37.92001 -112.97503 33880 ft 410 kts 210°
2026-04-22 03:54 37.87008 -113.01014 33921 ft 410 kts 210°
2026-04-22 03:55 37.82014 -113.04521 33942 ft 411 kts 211°
2026-04-22 03:55 37.77034 -113.08083 33940 ft 411 kts 213°
2026-04-22 03:56 37.72267 -113.12042 33945 ft 410 kts 216°
2026-04-22 03:56 37.68469 -113.15630 33976 ft 410 kts 218°
2026-04-22 03:57 37.63974 -113.20069 33954 ft 410 kts 218°
2026-04-22 03:57 37.59413 -113.24411 33904 ft 411 kts 217°
2026-04-22 03:58 37.54804 -113.28653 33886 ft 410 kts 217°
2026-04-22 03:58 37.50173 -113.32859 33872 ft 409 kts 217°
2026-04-22 03:59 37.45571 -113.37025 33868 ft 406 kts 217°
2026-04-22 03:59 37.40976 -113.41181 33821 ft 405 kts 217°
2026-04-22 04:00 37.36422 -113.45296 33807 ft 403 kts 217°
2026-04-22 04:00 37.31878 -113.49397 33828 ft 401 kts 217°
2026-04-22 04:01 37.27333 -113.53492 33826 ft 401 kts 217°
2026-04-22 04:01 37.22797 -113.57573 33854 ft 400 kts 217°
2026-04-22 04:02 37.18271 -113.61639 33869 ft 399 kts 217°
2026-04-22 04:02 37.13749 -113.65695 33864 ft 399 kts 217°
2026-04-22 04:03 37.09228 -113.69744 33856 ft 399 kts 217°
2026-04-22 04:03 37.04699 -113.73794 33862 ft 401 kts 217°
2026-04-22 04:04 37.00143 -113.77862 33853 ft 403 kts 217°
2026-04-22 04:04 36.95571 -113.81939 33832 ft 404 kts 217°
2026-04-22 04:05 36.90981 -113.86025 33803 ft 406 kts 217°
2026-04-22 04:05 36.86415 -113.90083 33774 ft 405 kts 217°
2026-04-22 04:06 36.81820 -113.94161 33779 ft 405 kts 217°
2026-04-22 04:06 36.77228 -113.98230 33792 ft 405 kts 217°
2026-04-22 04:07 36.72628 -114.02301 33799 ft 405 kts 217°
2026-04-22 04:07 36.68022 -114.06371 33794 ft 405 kts 217°
2026-04-22 04:08 36.63420 -114.10431 33790 ft 405 kts 217°
2026-04-22 04:08 36.58802 -114.14501 33783 ft 407 kts 217°
2026-04-22 04:09 36.54171 -114.18574 33772 ft 406 kts 217°
2026-04-22 04:09 36.49553 -114.22629 33781 ft 407 kts 217°
2026-04-22 04:10 36.44919 -114.26693 33787 ft 408 kts 217°
2026-04-22 04:10 36.40269 -114.30765 33801 ft 408 kts 217°
2026-04-22 04:11 36.35641 -114.34812 33801 ft 409 kts 217°
2026-04-22 04:11 36.30972 -114.38888 33803 ft 411 kts 217°
2026-04-22 04:12 36.26279 -114.42980 33795 ft 411 kts 217°
2026-04-22 04:12 36.21582 -114.47068 33783 ft 412 kts 217°
2026-04-22 04:13 36.16881 -114.51154 33790 ft 414 kts 217°
2026-04-22 04:13 36.12154 -114.55257 33808 ft 415 kts 217°
2026-04-22 04:14 36.07426 -114.59354 33832 ft 416 kts 217°
2026-04-22 04:14 36.02711 -114.63434 33848 ft 417 kts 217°
2026-04-22 04:15 35.97961 -114.67539 33869 ft 417 kts 217°
2026-04-22 04:15 35.93204 -114.71642 33900 ft 418 kts 217°
2026-04-22 04:16 35.86054 -114.77799 33928 ft 418 kts 217°
2026-04-22 04:17 35.81280 -114.81902 33911 ft 418 kts 217°
2026-04-22 04:17 35.76513 -114.85993 33913 ft 417 kts 217°
2026-04-22 04:18 35.71739 -114.90084 33919 ft 417 kts 217°
2026-04-22 04:18 35.66995 -114.94144 33927 ft 418 kts 217°
2026-04-22 04:19 35.62216 -114.98228 33927 ft 418 kts 217°
2026-04-22 04:19 35.57436 -115.02307 33924 ft 419 kts 217°
2026-04-22 04:20 35.52639 -115.06395 33915 ft 420 kts 217°
2026-04-22 04:20 35.48231 -115.11014 33891 ft 416 kts 233°
2026-04-22 04:20 35.46557 -115.13892 34082 ft 415 kts 235°
2026-04-22 04:21 35.44860 -115.16786 33931 ft 419 kts 231°
2026-04-22 04:21 35.40778 -115.21862 33946 ft 418 kts 223°
2026-04-22 04:22 35.36516 -115.26704 33972 ft 417 kts 225°
2026-04-22 04:22 35.32441 -115.31781 33988 ft 417 kts 227°
2026-04-22 04:23 35.28479 -115.36995 33999 ft 418 kts 228°
2026-04-22 04:23 35.24530 -115.42174 34001 ft 418 kts 227°
2026-04-22 04:24 35.20526 -115.47368 34001 ft 419 kts 227°
2026-04-22 04:24 35.16509 -115.52563 33989 ft 420 kts 227°
2026-04-22 04:25 35.12491 -115.57752 33990 ft 420 kts 227°
2026-04-22 04:25 35.08488 -115.62885 33988 ft 420 kts 227°
2026-04-22 04:25 35.06451 -115.65486 33601 ft 425 kts 227°
2026-04-22 04:26 35.04401 -115.68103 33194 ft 426 kts 227°
2026-04-22 04:26 35.02372 -115.70690 32767 ft 417 kts 227°
2026-04-22 04:26 35.00388 -115.73220 32338 ft 409 kts 227°
2026-04-22 04:26 34.98433 -115.75712 31930 ft 401 kts 227°
2026-04-22 04:27 34.96521 -115.78147 31526 ft 394 kts 227°
2026-04-22 04:27 34.94667 -115.80510 31122 ft 388 kts 227°
2026-04-22 04:27 34.92810 -115.82873 30727 ft 385 kts 227°
2026-04-22 04:27 34.90946 -115.85246 30346 ft 388 kts 227°
2026-04-22 04:28 34.89069 -115.87631 29966 ft 392 kts 227°
2026-04-22 04:28 34.87178 -115.90034 29512 ft 391 kts 227°
2026-04-22 04:28 34.85305 -115.92410 29061 ft 388 kts 227°
2026-04-22 04:28 34.83441 -115.94774 28633 ft 385 kts 227°
2026-04-22 04:29 34.81593 -115.97117 28200 ft 383 kts 227°
2026-04-22 04:29 34.79755 -115.99445 27712 ft 378 kts 226°
2026-04-22 04:29 34.77942 -116.01739 27238 ft 373 kts 227°
2026-04-22 04:29 34.76151 -116.04008 26801 ft 372 kts 227°
2026-04-22 04:30 34.74357 -116.06292 26271 ft 375 kts 227°
2026-04-22 04:30 34.72543 -116.08604 25600 ft 380 kts 227°
2026-04-22 04:30 34.70722 -116.10926 25022 ft 379 kts 227°
2026-04-22 04:30 34.68903 -116.13243 24444 ft 377 kts 227°
2026-04-22 04:31 34.67102 -116.15534 24083 ft 370 kts 227°
2026-04-22 04:31 34.65341 -116.17773 24101 ft 367 kts 226°
2026-04-22 04:31 34.63586 -116.20003 23957 ft 369 kts 226°
2026-04-22 04:31 34.61826 -116.22237 24016 ft 362 kts 226°
2026-04-22 04:32 34.60081 -116.24451 23965 ft 364 kts 226°
2026-04-22 04:32 34.58335 -116.26664 24007 ft 362 kts 226°
2026-04-22 04:32 34.56586 -116.28880 23988 ft 365 kts 226°
2026-04-22 04:32 34.54825 -116.31110 24011 ft 365 kts 226°
2026-04-22 04:33 34.53062 -116.33342 24000 ft 367 kts 226°
2026-04-22 04:33 34.51295 -116.35576 24003 ft 367 kts 226°
2026-04-22 04:33 34.49524 -116.37813 24020 ft 367 kts 226°
2026-04-22 04:33 34.47752 -116.40051 24004 ft 368 kts 226°
2026-04-22 04:34 34.45980 -116.42289 24007 ft 368 kts 226°
2026-04-22 04:34 34.44208 -116.44523 24009 ft 367 kts 226°
2026-04-22 04:34 34.42443 -116.46751 24000 ft 366 kts 227°
2026-04-22 04:34 34.40839 -116.49081 23968 ft 368 kts 237°
2026-04-22 04:35 34.39769 -116.51881 24062 ft 365 kts 248°
2026-04-22 04:35 34.38932 -116.54788 24001 ft 368 kts 248°
2026-04-22 04:35 34.38151 -116.57009 23988 ft 367 kts 242°
2026-04-22 04:35 34.36929 -116.59716 23987 ft 367 kts 239°
2026-04-22 04:36 34.35665 -116.62407 24002 ft 368 kts 240°
2026-04-22 04:36 34.34457 -116.65145 23991 ft 369 kts 242°
2026-04-22 04:36 34.33301 -116.67921 24000 ft 369 kts 242°
2026-04-22 04:36 34.32181 -116.70721 24000 ft 370 kts 243°
2026-04-22 04:37 34.31067 -116.73536 23995 ft 370 kts 243°
2026-04-22 04:37 34.29959 -116.76331 24027 ft 369 kts 243°
2026-04-22 04:37 34.28844 -116.79130 24002 ft 370 kts 243°
2026-04-22 04:37 34.27724 -116.81922 24052 ft 368 kts 243°
2026-04-22 04:38 34.26599 -116.84717 24019 ft 371 kts 243°
2026-04-22 04:38 34.25471 -116.87513 24046 ft 370 kts 243°
2026-04-22 04:38 34.24340 -116.90313 24047 ft 371 kts 242°
2026-04-22 04:38 34.23208 -116.93116 24073 ft 370 kts 242°
2026-04-22 04:39 34.22092 -116.95873 24076 ft 371 kts 242°
2026-04-22 04:39 34.20955 -116.98712 24111 ft 370 kts 244°
2026-04-22 04:39 34.19972 -117.01545 24102 ft 372 kts 248°
2026-04-22 04:39 34.19412 -117.03550 24086 ft 369 kts 251°
2026-04-22 04:40 34.18555 -117.07409 23986 ft 353 kts 252°
2026-04-22 04:40 34.17877 -117.10311 23103 ft 362 kts 251°
2026-04-22 04:40 34.17408 -117.12139 22863 ft 359 kts 250°
2026-04-22 04:40 34.16640 -117.14977 22174 ft 362 kts 249°
2026-04-22 04:41 34.15832 -117.17868 21563 ft 363 kts 249°
2026-04-22 04:41 34.15026 -117.20750 20940 ft 364 kts 249°
2026-04-22 04:41 34.14220 -117.23650 20326 ft 365 kts 249°
2026-04-22 04:41 34.13413 -117.26569 19737 ft 366 kts 249°
2026-04-22 04:42 34.12613 -117.29475 19143 ft 363 kts 249°
2026-04-22 04:42 34.11822 -117.32345 18567 ft 357 kts 249°
2026-04-22 04:42 34.11042 -117.35173 17914 ft 352 kts 249°
2026-04-22 04:42 34.10279 -117.37956 17276 ft 346 kts 250°
2026-04-22 04:43 34.09575 -117.40711 16639 ft 341 kts 251°
2026-04-22 04:43 34.08909 -117.43432 16022 ft 335 kts 251°
2026-04-22 04:43 34.08252 -117.46104 15422 ft 330 kts 251°
2026-04-22 04:43 34.07596 -117.48742 14828 ft 326 kts 251°
2026-04-22 04:44 34.06979 -117.51346 14246 ft 322 kts 253°
2026-04-22 04:44 34.06504 -117.53790 13652 ft 319 kts 256°
2026-04-22 04:44 34.06184 -117.55746 13099 ft 319 kts 257°
2026-04-22 04:44 34.05956 -117.57372 12653 ft 319 kts 258°
2026-04-22 04:45 34.05682 -117.59621 12384 ft 308 kts 259°
2026-04-22 04:45 34.05449 -117.61601 12466 ft 293 kts 258°
2026-04-22 04:45 34.05184 -117.63746 12528 ft 283 kts 258°
2026-04-22 04:45 34.04871 -117.66125 12148 ft 292 kts 257°
2026-04-22 04:46 34.04533 -117.68556 11705 ft 295 kts 257°
2026-04-22 04:46 34.04183 -117.71001 11152 ft 299 kts 257°
2026-04-22 04:46 34.03818 -117.73506 10532 ft 306 kts 257°
2026-04-22 04:46 34.03443 -117.76051 9955 ft 311 kts 257°
2026-04-22 04:47 34.03061 -117.78634 9350 ft 313 kts 257°
2026-04-22 04:47 34.02689 -117.81153 9243 ft 293 kts 257°
2026-04-22 04:47 34.02365 -117.83357 9207 ft 281 kts 257°
2026-04-22 04:47 34.02028 -117.85625 8916 ft 278 kts 257°
2026-04-22 04:48 34.01721 -117.87668 8391 ft 284 kts 257°
2026-04-22 04:48 34.01373 -117.89982 8203 ft 277 kts 257°
2026-04-22 04:48 34.01025 -117.92291 7606 ft 286 kts 257°
2026-04-22 04:48 34.00671 -117.94639 7180 ft 282 kts 257°
2026-04-22 04:49 34.00324 -117.96951 6678 ft 280 kts 258°
2026-04-22 04:49 33.99977 -117.99253 6219 ft 276 kts 258°
2026-04-22 04:49 33.99635 -118.01479 5944 ft 265 kts 258°
2026-04-22 04:49 33.99292 -118.03643 5453 ft 262 kts 258°
2026-04-22 04:50 33.98946 -118.05756 5271 ft 248 kts 258°
2026-04-22 04:50 33.98616 -118.07776 4979 ft 246 kts 258°
2026-04-22 04:50 33.98287 -118.09763 4599 ft 244 kts 258°
2026-04-22 04:50 33.97944 -118.11777 4220 ft 241 kts 258°
2026-04-22 04:51 33.97795 -118.12637 4138 ft 236 kts 258°
2026-04-22 04:51 33.97688 -118.13252 4161 ft 230 kts 258°
2026-04-22 04:51 33.97360 -118.15160 4167 ft 229 kts 258°
2026-04-22 04:51 33.97029 -118.17081 3845 ft 237 kts 258°
2026-04-22 04:52 33.96691 -118.19002 3447 ft 230 kts 258°
2026-04-22 04:52 33.96417 -118.20852 3036 ft 224 kts 264°
2026-04-22 04:52 33.96367 -118.22725 2699 ft 224 kts 270°
2026-04-22 04:52 33.96375 -118.24612 2702 ft 226 kts 270°
2026-04-22 04:53 33.96365 -118.26523 2492 ft 228 kts 270°
2026-04-22 04:53 33.96347 -118.28379 2165 ft 215 kts 269°
2026-04-22 04:53 33.96290 -118.29779 1870 ft 207 kts 265°
2026-04-22 04:53 33.96163 -118.31402 1604 ft 198 kts 264°
2026-04-22 04:54 33.96014 -118.33051 1382 ft 200 kts 263°
2026-04-22 04:54 33.95827 -118.34710 1126 ft 200 kts 262°
2026-04-22 04:54 33.95640 -118.36377 852 ft 211 kts 263°
2026-04-22 04:54 33.95433 -118.38131 564 ft 204 kts 262°
2026-04-22 04:55 33.95262 -118.39791 247 ft 192 kts 263°
2026-04-22 04:55 33.95106 -118.41188 125 ft 139 kts 266°
2026-04-22 04:55 33.95019 -118.42037 121 ft 61 kts 262°
2026-04-22 04:55 33.94965 -118.42454 125 ft 37 kts 252°
2026-04-22 04:56 33.94873 -118.42647 123 ft 22 kts 230°
2026-04-22 04:56 33.94800 -118.42731 121 ft 12 kts 220°
2026-04-22 04:56 33.94789 -118.42742 123 ft 0 kts 218°
2026-04-22 04:56 33.94786 -118.42744 122 ft 1 kts 214°
2026-04-22 04:57 33.94737 -118.42765 121 ft 17 kts 197°
2026-04-22 04:57 33.94667 -118.42780 122 ft 2 kts 176°
2026-04-22 04:57 33.94657 -118.42778 123 ft 1 kts 166°
2026-04-22 04:58 33.94647 -118.42775 124 ft 4 kts 166°
2026-04-22 04:58 33.94616 -118.42715 124 ft 12 kts 70°
2026-04-22 04:58 33.94633 -118.42647 123 ft 11 kts 75°
2026-04-22 04:58 33.94652 -118.42527 125 ft 19 kts 83°
2026-04-22 04:59 33.94670 -118.42342 124 ft 26 kts 83°
2026-04-22 04:59 33.94691 -118.42152 121 ft 22 kts 85°
2026-04-22 04:59 33.94713 -118.41955 125 ft 24 kts 81°
2026-04-22 04:59 33.94729 -118.41773 121 ft 22 kts 82°
2026-04-22 05:00 33.94752 -118.41589 124 ft 15 kts 82°
2026-04-22 05:00 33.94763 -118.41458 125 ft 15 kts 87°
2026-04-22 05:00 33.94782 -118.41368 125 ft 0 kts 75°
2026-04-22 05:00 33.94782 -118.41367 125 ft 1 kts 75°
2026-04-22 05:01 33.94798 -118.41252 124 ft 27 kts 80°
2026-04-22 05:01 33.94820 -118.41023 125 ft 22 kts 85°
2026-04-22 05:01 33.94821 -118.40899 124 ft 12 kts 119°
2026-04-22 05:01 33.94782 -118.40871 124 ft 0 kts 148°
2026-04-22 05:02 33.94781 -118.40870 124 ft 1 kts 147°
2026-04-22 05:02 33.94758 -118.40803 124 ft 0 kts 77°
2026-04-22 05:03 33.94758 -118.40801 124 ft 1 kts 76°
2026-04-22 05:03 33.94761 -118.40787 122 ft 1 kts 78°
2026-04-22 05:03 33.94777 -118.40625 123 ft 27 kts 86°
2026-04-22 05:03 33.94729 -118.40573 123 ft 9 kts 180°
2026-04-22 05:04 33.94685 -118.40610 124 ft 7 kts 253°
2026-04-22 05:04 33.94679 -118.40645 125 ft 0 kts 257°